STARLINK-5761, 55599

Orbit data source: Space-Track

STARLINK-5761, 55599 is a payload satellite owned by SpaceX/Seattle (US) in LEO that was launched on Sun, 12 Feb 2023 UTC via an FALCON 9 launch vehicle from the Air Force Eastern Test Range (AFETR). Payload-class satellites include a variety of spacecraft equipped with specific instruments for various scientific and technological missions. These include communications satellites like Starlink; space stations such as the ISS; scientific satellites like the Hubble; Earth observation satellites from companies like Planet Labs, Umbra, and HawkEye 360; GPS; miniature CubeSats for education and research; and military/defense satellites.

Loading next visibility...
Identifier
55599, 2023-020AG
Orbit
LEO
Country
Flag of USUS
Related business
Manufacturer
SpaceX/Seattle
Mission
Operational Commercial Communications
Bus & Motor
STARLINK, Unknown motor
Mass
305 kg wet, ~290 kg dry
Launch date (UTC)
2023-02-12 (4 years ago)
Launch vehicle
FALCON 9
Launch site
Air Force Eastern Test Range (AFETR)
Object type
Payload
Rocket body
Debris
Shape & HBR
Box + 1 Pan, 10.1 m
Radar Cross Section
13.562 m², Large (>1 m²)

Expand to show TLE details & history
Last TLE update: 16 hours ago

TLE from 16 hours ago
0 STARLINK-5761
1 55599U 23020AG  26264.23884464 -.00000113  00000-0  54139-5 0  9992
2 55599  43.0045 330.0587 0001366 294.0407  66.0302 15.27578626198946
Epoch: 2026-09-21T05:43Z
TLE epoch observation values (Epoch: 2026-09-21T05:43:56.176Z)
Latitude
-0.00001°
Longitude
-116.04692°
Altitude
482.449 km
Speed
7.626 km/s
True Right ascension
22h 00m 14s
True Declination
0° 00' 00"
Sunlit
Object was in full shadow at epoch
Visualization orbit readout
Latitude
Unknown
Longitude
Unknown
Altitude
Unknown
Speed
Unknown
Apparent Right ascension
Unknown
Apparent Declination
Unknown
Sunlit
N/A
Visualization observer readout
Local Sidereal Time
15:11:29
Azimuth
Unknown
Elevation
Unknown
Doppler factor
Unknown
Orbital elements
Apogee altitude
485.935 km
Perigee altitude
484.06 km
Semi-major axis
6,863.135 km
Eccentricity
0.00014
Inclination
43.0045°
RAAN
330.0587°
Arg. of periapsis
294.0407°
True anomaly
66.0445°
Mean anomaly
66.0302°
Eccentric anomaly
66.03735°
Mean motion
3.81733 °/min
Orbital period
94.31 mins
BSTAR
0.0000054139
Loading maneuver chart data...
Computing Atmospheric mass density...
Loading historical data...
Loading historical data...
Loading historical data...
Loading historical data...
Loading historical data...
Loading historical data...
Loading historical data...

Documentation

Showing up to 5 results
|